DLH5JR EDDM-LSZH

Flight info

Callsign DLH5JR
Flight time 0h 38m
Altitude 22000
Route MERSI5S MERSI Y100 MOMUK Y112 RAVED L856 NEGRA
Aircraft A319/M-SDE3FGHIRWY/LB1

Departure

Time 2026-05-07 17:21
Airport Munich Airport (EDDM)

Arrival

Time 2026-05-07 18:00
Airport Zürich Airport (LSZH)
Time Latitude Longitude Altitude Speed Heading
2026-05-07 16:53 48.35594 11.79271 1468 ft 0 kts 263°
2026-05-07 16:54 48.35595 11.79285 1486 ft 0 kts 263°
2026-05-07 16:55 48.35411 11.79317 1478 ft 0 kts 270°
2026-05-07 17:08 48.35411 11.79318 1485 ft 1 kts 270°
2026-05-07 17:09 48.35410 11.79349 1472 ft 3 kts 270°
2026-05-07 17:09 48.35410 11.79383 1477 ft 3 kts 270°
2026-05-07 17:09 48.35410 11.79400 1477 ft 3 kts 269°
2026-05-07 17:09 48.35417 11.79442 1471 ft 3 kts 223°
2026-05-07 17:10 48.35428 11.79455 1471 ft 3 kts 191°
2026-05-07 17:10 48.35449 11.79455 1477 ft 3 kts 173°
2026-05-07 17:10 48.35455 11.79454 1473 ft 0 kts 173°
2026-05-07 17:12 48.35452 11.79454 1479 ft 2 kts 173°
2026-05-07 17:12 48.35420 11.79460 1471 ft 7 kts 173°
2026-05-07 17:12 48.35350 11.79472 1485 ft 13 kts 173°
2026-05-07 17:13 48.35250 11.79489 1483 ft 15 kts 174°
2026-05-07 17:13 48.35145 11.79507 1485 ft 15 kts 173°
2026-05-07 17:13 48.35039 11.79526 1485 ft 16 kts 174°
2026-05-07 17:13 48.34932 11.79544 1485 ft 14 kts 172°
2026-05-07 17:14 48.34881 11.79554 1483 ft 0 kts 173°
2026-05-07 17:14 48.34879 11.79554 1482 ft 1 kts 173°
2026-05-07 17:14 48.34867 11.79556 1475 ft 4 kts 173°
2026-05-07 17:15 48.34808 11.79556 1485 ft 13 kts 183°
2026-05-07 17:15 48.34711 11.79554 1485 ft 13 kts 174°
2026-05-07 17:15 48.34625 11.79527 1481 ft 14 kts 215°
2026-05-07 17:15 48.34559 11.79410 1485 ft 16 kts 232°
2026-05-07 17:16 48.34495 11.79281 1481 ft 9 kts 233°
2026-05-07 17:16 48.34493 11.79278 1474 ft 1 kts 232°
2026-05-07 17:18 48.34490 11.79271 1481 ft 3 kts 232°
2026-05-07 17:18 48.34465 11.79222 1483 ft 9 kts 233°
2026-05-07 17:19 48.34412 11.79130 1479 ft 14 kts 223°
2026-05-07 17:19 48.34370 11.79022 1485 ft 12 kts 262°
2026-05-07 17:19 48.34370 11.79016 1485 ft 0 kts 262°
2026-05-07 17:20 48.34370 11.79015 1485 ft 0 kts 262°
2026-05-07 17:20 48.34369 11.79006 1485 ft 3 kts 262°
2026-05-07 17:20 48.34342 11.78665 1486 ft 72 kts 264°
2026-05-07 17:21 48.34261 11.77560 1481 ft 138 kts 263°
2026-05-07 17:21 48.34144 11.75964 1857 ft 157 kts 266°
2026-05-07 17:21 48.34030 11.74337 2774 ft 157 kts 265°
2026-05-07 17:21 48.33902 11.72624 3262 ft 175 kts 265°
2026-05-07 17:22 48.33754 11.70687 3637 ft 198 kts 264°
2026-05-07 17:22 48.33586 11.68506 4029 ft 222 kts 263°
2026-05-07 17:22 48.33400 11.66153 4816 ft 229 kts 263°
2026-05-07 17:22 48.33209 11.63732 5597 ft 242 kts 262°
2026-05-07 17:23 48.33014 11.61108 6195 ft 261 kts 262°
2026-05-07 17:23 48.32814 11.58351 6792 ft 269 kts 263°
2026-05-07 17:23 48.32613 11.55557 6954 ft 268 kts 263°
2026-05-07 17:23 48.32410 11.52744 7341 ft 275 kts 263°
2026-05-07 17:24 48.32203 11.49907 8547 ft 272 kts 262°
2026-05-07 17:24 48.31997 11.47068 9683 ft 274 kts 262°
2026-05-07 17:24 48.31785 11.44200 10714 ft 278 kts 262°
2026-05-07 17:24 48.31567 11.41302 11637 ft 281 kts 262°
2026-05-07 17:25 48.31345 11.38371 12493 ft 284 kts 262°
2026-05-07 17:25 48.31121 11.35405 13341 ft 287 kts 262°
2026-05-07 17:25 48.30730 11.32458 14121 ft 290 kts 249°
2026-05-07 17:25 48.29774 11.29787 14840 ft 294 kts 234°
2026-05-07 17:26 48.28585 11.27151 15069 ft 317 kts 239°
2026-05-07 17:26 48.27500 11.24143 15319 ft 335 kts 243°
2026-05-07 17:26 48.26477 11.20943 15904 ft 342 kts 245°
2026-05-07 17:26 48.25466 11.17684 16575 ft 347 kts 245°
2026-05-07 17:27 48.24428 11.14393 17251 ft 351 kts 244°
2026-05-07 17:27 48.23353 11.11083 17933 ft 355 kts 243°
2026-05-07 17:27 48.22241 11.07747 18561 ft 359 kts 243°
2026-05-07 17:27 48.21102 11.04387 18920 ft 362 kts 243°
2026-05-07 17:28 48.19952 11.01027 19012 ft 363 kts 243°
2026-05-07 17:28 48.18793 10.97647 19285 ft 366 kts 242°
2026-05-07 17:28 48.17624 10.94247 19960 ft 368 kts 242°
2026-05-07 17:28 48.16447 10.90824 20587 ft 371 kts 242°
2026-05-07 17:29 48.15262 10.87372 21208 ft 374 kts 242°
2026-05-07 17:29 48.14066 10.83893 21789 ft 378 kts 242°
2026-05-07 17:29 48.12859 10.80388 21994 ft 379 kts 242°
2026-05-07 17:29 48.11650 10.76888 22029 ft 378 kts 242°
2026-05-07 17:30 48.10443 10.73396 22031 ft 378 kts 242°
2026-05-07 17:30 48.09644 10.71085 22030 ft 378 kts 242°
2026-05-07 17:30 48.09315 10.70136 22030 ft 378 kts 242°
2026-05-07 17:30 48.08091 10.66592 22031 ft 377 kts 242°
2026-05-07 17:31 48.06885 10.63109 22031 ft 377 kts 242°
2026-05-07 17:31 48.05676 10.59623 22028 ft 377 kts 242°
2026-05-07 17:31 48.04482 10.56187 22031 ft 377 kts 242°
2026-05-07 17:31 48.03273 10.52714 22032 ft 377 kts 242°
2026-05-07 17:32 48.02060 10.49237 22052 ft 377 kts 242°
2026-05-07 17:32 48.00850 10.45770 22049 ft 377 kts 242°
2026-05-07 17:32 47.99638 10.42301 22053 ft 377 kts 242°
2026-05-07 17:32 47.98428 10.38838 22055 ft 376 kts 242°
2026-05-07 17:33 47.97217 10.35378 22055 ft 376 kts 242°
2026-05-07 17:33 47.96002 10.31916 22052 ft 376 kts 242°
2026-05-07 17:33 47.94789 10.28463 22054 ft 376 kts 242°
2026-05-07 17:33 47.93574 10.25008 22052 ft 376 kts 242°
2026-05-07 17:34 47.92361 10.21561 22054 ft 376 kts 241°
2026-05-07 17:34 47.91142 10.18109 22052 ft 376 kts 242°
2026-05-07 17:34 47.89924 10.14660 22053 ft 376 kts 242°
2026-05-07 17:34 47.88708 10.11216 22047 ft 376 kts 241°
2026-05-07 17:35 47.87489 10.07774 22047 ft 376 kts 241°
2026-05-07 17:35 47.86271 10.04337 22043 ft 376 kts 241°
2026-05-07 17:35 47.85051 10.00897 22042 ft 375 kts 241°
2026-05-07 17:35 47.83861 9.97541 22042 ft 375 kts 241°
2026-05-07 17:36 47.82640 9.94104 22040 ft 375 kts 241°
2026-05-07 17:36 47.81419 9.90677 22039 ft 375 kts 241°
2026-05-07 17:36 47.80194 9.87249 22030 ft 375 kts 241°
2026-05-07 17:36 47.78976 9.83841 21851 ft 369 kts 241°
2026-05-07 17:37 47.77783 9.80506 21594 ft 362 kts 241°
2026-05-07 17:37 47.76604 9.77217 21332 ft 360 kts 241°
2026-05-07 17:37 47.75427 9.73941 21072 ft 358 kts 241°
2026-05-07 17:37 47.74256 9.70679 20816 ft 357 kts 242°
2026-05-07 17:38 47.73326 9.67276 20562 ft 357 kts 252°
2026-05-07 17:38 47.72842 9.63662 20309 ft 357 kts 263°
2026-05-07 17:38 47.72720 9.59984 20060 ft 356 kts 266°
2026-05-07 17:38 47.72623 9.56306 19811 ft 355 kts 266°
2026-05-07 17:39 47.72524 9.52648 19562 ft 355 kts 266°
2026-05-07 17:39 47.72419 9.48999 19316 ft 353 kts 266°
2026-05-07 17:39 47.72144 9.45440 19067 ft 349 kts 256°
2026-05-07 17:39 47.71386 9.42056 18640 ft 344 kts 244°
2026-05-07 17:40 47.70176 9.39009 18163 ft 342 kts 233°
2026-05-07 17:40 47.68681 9.36278 17678 ft 339 kts 230°
2026-05-07 17:40 47.67190 9.33578 17219 ft 336 kts 231°
2026-05-07 17:40 47.65717 9.30892 16767 ft 334 kts 231°
2026-05-07 17:41 47.64261 9.28233 16322 ft 331 kts 231°
2026-05-07 17:41 47.62814 9.25594 15887 ft 329 kts 231°
2026-05-07 17:41 47.61373 9.22978 15459 ft 327 kts 231°
2026-05-07 17:41 47.60052 9.20256 15022 ft 325 kts 240°
2026-05-07 17:42 47.59139 9.17216 14596 ft 323 kts 252°
2026-05-07 17:42 47.58651 9.13977 14168 ft 322 kts 259°
2026-05-07 17:42 47.58262 9.10721 13733 ft 320 kts 259°
2026-05-07 17:42 47.57864 9.07482 13273 ft 318 kts 259°
2026-05-07 17:43 47.57636 9.04238 12831 ft 318 kts 272°
2026-05-07 17:43 47.57961 9.01013 12439 ft 316 kts 278°
2026-05-07 17:43 47.58357 8.97813 12052 ft 314 kts 279°
2026-05-07 17:43 47.58756 8.94636 11671 ft 313 kts 279°
2026-05-07 17:44 47.59155 8.91478 11294 ft 311 kts 279°
2026-05-07 17:44 47.59554 8.88336 10915 ft 309 kts 279°
2026-05-07 17:44 47.59952 8.85218 10545 ft 307 kts 279°
2026-05-07 17:44 47.60348 8.82129 10179 ft 303 kts 279°
2026-05-07 17:45 47.60737 8.79083 9802 ft 298 kts 279°
2026-05-07 17:45 47.61114 8.76101 9398 ft 290 kts 279°
2026-05-07 17:45 47.61480 8.73195 8995 ft 283 kts 278°
2026-05-07 17:45 47.61839 8.70362 8610 ft 277 kts 279°
2026-05-07 17:46 47.62188 8.67589 8224 ft 271 kts 279°
2026-05-07 17:46 47.62530 8.64854 7838 ft 269 kts 279°
2026-05-07 17:46 47.62863 8.62136 7461 ft 268 kts 279°
2026-05-07 17:46 47.63192 8.59419 7091 ft 268 kts 278°
2026-05-07 17:47 47.63520 8.56707 6720 ft 267 kts 279°
2026-05-07 17:47 47.63840 8.54002 6348 ft 265 kts 279°
2026-05-07 17:47 47.64152 8.51321 5957 ft 261 kts 279°
2026-05-07 17:47 47.64451 8.48697 5566 ft 255 kts 278°
2026-05-07 17:48 47.64659 8.46126 5174 ft 248 kts 267°
2026-05-07 17:48 47.64278 8.43743 4799 ft 238 kts 244°
2026-05-07 17:48 47.63327 8.41800 4424 ft 230 kts 230°
2026-05-07 17:48 47.62286 8.40037 4019 ft 224 kts 229°
2026-05-07 17:49 47.61206 8.38512 3992 ft 209 kts 207°
2026-05-07 17:49 47.59853 8.38202 4040 ft 200 kts 168°
2026-05-07 17:49 47.58654 8.39262 4050 ft 205 kts 136°
2026-05-07 17:49 47.57513 8.40504 4028 ft 205 kts 159°
2026-05-07 17:50 47.56073 8.41198 4025 ft 237 kts 163°
2026-05-07 17:50 47.54424 8.41950 4054 ft 254 kts 163°
2026-05-07 17:50 47.52689 8.42519 4123 ft 256 kts 180°
2026-05-07 17:50 47.50958 8.41999 4213 ft 255 kts 200°
2026-05-07 17:51 47.49240 8.41327 4283 ft 256 kts 194°
2026-05-07 17:51 47.47506 8.40754 4356 ft 256 kts 194°
2026-05-07 17:51 47.45738 8.40538 4433 ft 258 kts 176°
2026-05-07 17:51 47.43953 8.40817 4509 ft 257 kts 174°
2026-05-07 17:52 47.42177 8.41139 4505 ft 256 kts 174°
2026-05-07 17:52 47.40400 8.41466 4501 ft 256 kts 174°
2026-05-07 17:52 47.38626 8.41792 4501 ft 256 kts 174°
2026-05-07 17:52 47.36933 8.42446 4501 ft 257 kts 156°
2026-05-07 17:53 47.35293 8.43621 4494 ft 258 kts 154°
2026-05-07 17:53 47.33692 8.44820 4689 ft 257 kts 153°
2026-05-07 17:53 47.32084 8.46019 4961 ft 261 kts 154°
2026-05-07 17:53 47.30572 8.47428 5005 ft 251 kts 137°
2026-05-07 17:54 47.29597 8.49435 5009 ft 235 kts 113°
2026-05-07 17:54 47.29179 8.51647 5004 ft 213 kts 102°
2026-05-07 17:54 47.28854 8.53740 5023 ft 209 kts 103°
2026-05-07 17:54 47.28526 8.55816 5010 ft 208 kts 103°
2026-05-07 17:55 47.28296 8.57913 5007 ft 208 kts 90°
2026-05-07 17:55 47.28549 8.59998 4800 ft 207 kts 68°
2026-05-07 17:55 47.29301 8.61768 4699 ft 204 kts 46°
2026-05-07 17:55 47.30431 8.63016 4602 ft 204 kts 25°
2026-05-07 17:56 47.31779 8.63587 4438 ft 202 kts
2026-05-07 17:56 47.32701 8.63556 4294 ft 199 kts 350°
2026-05-07 17:56 47.33974 8.62928 4037 ft 189 kts 333°
2026-05-07 17:56 47.35119 8.62133 3812 ft 175 kts 333°
2026-05-07 17:57 47.36186 8.61408 3565 ft 164 kts 334°
2026-05-07 17:57 47.37213 8.60684 3307 ft 166 kts 333°
2026-05-07 17:57 47.38266 8.59957 3059 ft 168 kts 334°
2026-05-07 17:57 47.39327 8.59244 2788 ft 167 kts 334°
2026-05-07 17:58 47.40259 8.58606 2543 ft 161 kts 334°
2026-05-07 17:58 47.41229 8.57942 2340 ft 146 kts 335°
2026-05-07 17:58 47.42135 8.57324 2077 ft 141 kts 334°
2026-05-07 17:58 47.43007 8.56736 1864 ft 134 kts 333°
2026-05-07 17:59 47.43877 8.56134 1708 ft 143 kts 334°
2026-05-07 17:59 47.44752 8.55535 1477 ft 133 kts 333°
2026-05-07 17:59 47.45537 8.54987 1405 ft 112 kts 334°
2026-05-07 17:59 47.46098 8.54605 1401 ft 61 kts 335°
2026-05-07 18:00 47.46314 8.54459 1401 ft 23 kts 335°
2026-05-07 18:00 47.46439 8.54459 1394 ft 19 kts 45°
2026-05-07 18:00 47.46481 8.54594 1396 ft 11 kts 77°
2026-05-07 18:00 47.46432 8.54657 1395 ft 10 kts 153°
2026-05-07 18:01 47.46364 8.54704 1397 ft 11 kts 154°
2026-05-07 18:01 47.46295 8.54752 1396 ft 10 kts 155°
2026-05-07 18:01 47.46227 8.54797 1400 ft 12 kts 155°
2026-05-07 18:01 47.46143 8.54853 1400 ft 15 kts 155°
2026-05-07 18:02 47.45922 8.55007 1394 ft 19 kts 155°
2026-05-07 18:02 47.45809 8.55084 1399 ft 16 kts 154°
2026-05-07 18:02 47.45717 8.55148 1403 ft 13 kts 155°
2026-05-07 18:03 47.45652 8.55195 1399 ft 9 kts 153°
2026-05-07 18:03 47.45601 8.55232 1404 ft 8 kts 154°
2026-05-07 18:03 47.45551 8.55271 1399 ft 11 kts 142°
2026-05-07 18:03 47.45530 8.55427 1402 ft 19 kts 95°
2026-05-07 18:04 47.45519 8.55597 1397 ft 1 kts 96°
2026-05-07 18:04 47.45518 8.55602 1397 ft 4 kts 96°
2026-05-07 18:04 47.45447 8.55635 1397 ft 9 kts 184°
2026-05-07 18:04 47.45435 8.55634 1397 ft 0 kts 184°
2026-05-07 18:05 47.45430 8.55634 1397 ft 0 kts 185°